SCP
0 0 0 0 0 0 0 0 0 0 0 0 0 0 0 0 0 0 0 1 1 1 1 1 1 0 0 0 0 0 0 0 0 0 0 0 0 0 0 0 0 0 0 0
0 0 0 0 0 0 0 0 0 0 0 0 0 0 0 0 0 0 0 1 1 1 1 1 1 0 0 0 0 0 0 0 0 0 0 0 0 0 0 0 0 0 0 0
0 0 0 0 0 0 0 0 0 0 0 0 0 0 0 0 0 0 0 0 1 1 1 1 1 1 0 0 0 0 0 0 0 0 0 0 0 0 0 0 0 0 0 0
0 0 0 0 0 0 0 0 0 0 0 0 0 0 0 0 0 0 0 0 0 1 1 1 1 1 0 0 0 0 0 0 0 0 0 0 0 0 0 0 0 0 0 0
0 0 0 0 0 0 0 0 0 0 0 0 0 0 0 0 0 0 0 0 0 1 1 1 1 1 1 0 0 0 0 0 0 0 0 0 0 0 0 0 0 0 0 0
0 0 0 0 0 0 0 0 0 0 0 0 0 0 0 0 0 0 0 0 0 1 1 1 2 1 1 1 1 0 0 0 0 0 0 0 0 0 0 0 0 0 0 0
0 0 0 0 0 0 0 0 0 0 0 0 0 0 0 0 0 0 0 0 0 1 1 1 2 1 2 1 1 1 0 0 0 0 0 0 0 0 0 0 0 0 0 0
0 0 0 0 0 0 0 0 0 0 0 0 0 0 0 0 0 0 0 0 1 1 1 2 2 1 2 2 2 1 1 1 1 0 0 0 0 0 0 0 0 0 0 0
0 0 0 0 0 0 0 0 0 0 0 0 0 0 0 0 0 0 0 0 1 1 1 2 2 2 2 2 2 2 1 1 1 1 1 0 0 0 0 0 0 0 0 0
0 0 0 0 0 0 0 0 0 0 0 0 0 0 0 0 0 0 0 0 1 1 1 2 2 2 2 2 2 2 2 1 1 1 1 0 0 0 0 0 0 0 0 0
0 0 0 0 0 0 0 0 0 0 0 0 0 0 0 0 0 0 0 0 1 1 1 2 2 2 2 2 1 1 1 1 1 1 1 0 0 0 0 0 0 0 0 0
0 0 0 0 0 0 0 0 0 0 0 0 0 0 0 0 0 0 0 0 0 1 1 2 2 2 2 2 1 1 1 1 1 1 1 0 0 0 0 0 0 0 0 0
0 0 0 0 0 0 0 0 0 0 0 0 0 0 0 0 0 0 0 0 1 1 1 2 2 2 2 1 1 1 1 1 1 1 0 0 0 0 0 0 0 0 0 0
0 0 0 0 0 0 0 0 0 0 0 0 0 0 0 0 0 0 0 0 1 1 1 1 2 2 2 2 1 1 1 1 1 1 0 0 0 0 0 0 0 0 0 0
0 0 0 0 0 0 0 0 0 0 0 0 0 0 0 0 0 0 0 0 0 1 1 1 1 1 2 2 1 1 1 1 1 1 0 0 0 0 0 0 0 0 0 0
0 0 0 0 0 0 0 0 0 0 0 0 0 0 0 0 0 0 0 0 0 0 0 0 1 1 2 2 2 1 0 1 0 0 1 1 1 1 0 0 0 0 0 0
0 0 0 0 0 0 0 0 0 0 0 0 0 0 0 0 0 0 0 0 0 0 1 1 1 1 2 2 2 1 0 0 0 0 0 1 1 1 0 0 0 0 0 0
0 0 0 0 0 0 0 0 0 0 0 0 0 0 0 0 0 0 0 0 0 1 1 1 1 1 1 2 2 1 1 0 0 0 0 1 1 1 0 0 0 0 0 0
0 0 0 0 0 0 0 0 0 0 0 0 0 0 0 0 0 0 0 0 0 1 1 1 1 1 1 1 2 1 1 0 0 0 0 0 0 0 0 0 0 0 0 0
0 0 0 0 0 0 0 0 0 0 0 0 0 0 0 0 0 0 0 0 0 1 1 1 1 1 1 1 1 1 1 0 0 0 0 0 0 0 0 0 0 0 0 0
0 0 0 0 0 0 0 0 0 0 0 0 0 0 0 0 0 0 0 0 0 1 1 1 1 1 1 1 1 1 0 0 0 0 0 0 0 0 0 0 0 0 0 0
0 0 0 0 0 0 0 0 0 0 0 0 0 0 0 0 0 0 0 0 0 1 1 1 1 1 1 1 1 1 0 0 0 0 0 0 0 0 0 0 0 0 0 0
0 0 0 0 0 0 0 0 0 0 0 0 0 0 0 0 0 0 0 0 0 0 1 1 1 1 1 0 0 0 0 0 0 0 0 0 0 0 0 0 0 0 0 0
0 0 0 0 0 0 0 0 0 0 0 0 0 0 0 0 0 0 0 0 0 0 1 1 1 1 0 0 0 0 0 0 0 0 0 0 0 0 0 0 0 0 0 0
0 0 0 0 0 0 0 0 0 0 0 0 0 0 0 0 0 0 0 0 0 0 0 1 1 1 0 0 0 0 0 0 0 0 0 0 0 0 0 0 0 0 0 0
0 0 0 0 0 0 0 0 0 0 0 0 0 0 0 0 0 0 0 0 0 0 0 0 1 1 0 0 0 0 0 0 0 0 0 0 0 0 0 0 0 0 0 0
Wind_Speed
1 3 1 4 4 4 2 2 1 1 2 2 3 4 5 5 5 6 7 7 7 7 7 7 7 7 7 6 7 6 6 4 4 3 3 3 2 1 2 2 3 3 3 4
3 2 6 4 3 2 3 2 1 0 0 2 3 3 5 6 7 8 9 9 9 7 7 7 7 7 7 7 7 6 6 5 4 3 3 2 2 1 1 1 3 3 4 3
4 4 3 3 3 3 3 4 4 3 0 1 2 2 4 5 4 6 7 8 9 11 11 10 9 8 8 8 8 7 6 6 5 4 3 3 3 3 3 3 2 2 3 4
2 3 2 2 3 4 3 3 4 4 2 2 2 2 5 6 6 7 8 8 9 9 10 10 10 9 9 8 7 7 7 6 5 5 5 5 3 2 1 1 1 2 3 4
3 4 3 3 4 3 3 3 3 3 2 0 1 2 6 3 7 9 9 11 10 10 11 11 11 10 9 9 8 8 7 6 5 5 6 6 4 2 1 1 2 2 3 3
4 3 4 4 2 3 2 3 3 3 3 2 5 4 6 6 10 10 10 10 10 11 11 11 10 9 8 7 7 7 7 5 5 5 6 6 5 4 3 2 2 1 1 2
2 2 1 3 2 1 4 5 3 3 2 5 4 4 8 8 9 11 12 11 10 10 10 11 11 10 9 9 8 8 8 6 5 6 5 5 5 5 4 3 3 2 1 1
1 3 4 3 5 4 3 6 5 3 3 4 1 5 7 6 6 7 9 9 9 10 10 11 12 11 11 10 9 9 8 6 6 6 5 4 4 3 3 3 3 3 2 1
4 4 4 4 4 7 4 3 5 4 1 2 4 4 5 2 3 6 8 9 10 10 11 11 11 11 11 10 10 10 9 7 6 6 5 4 4 4 3 3 3 2 2 2
5 2 3 2 2 2 6 6 4 3 2 2 4 3 4 2 4 6 8 10 10 9 10 10 10 10 10 10 8 8 8 8 7 6 5 5 4 4 4 4 4 4 3 3
4 3 2 0 4 5 3 3 4 3 3 3 2 6 5 7 7 9 10 10 10 11 11 10 9 9 9 8 8 8 8 7 6 6 5 5 4 4 4 4 4 4 3 4
4 5 2 5 5 4 5 6 6 4 3 3 2 7 5 5 5 7 8 8 9 10 9 9 9 8 8 9 9 9 8 8 7 6 6 5 5 5 4 4 4 4 5 4
4 5 2 5 5 2 1 4 5 5 3 3 3 7 3 2 3 6 7 7 7 8 8 8 8 9 9 9 9 9 8 8 7 6 6 5 5 5 5 4 4 5 5 5
5 4 5 6 6 3 3 4 5 6 4 4 7 7 5 4 5 6 7 8 8 8 9 10 9 9 9 9 9 9 8 8 8 7 7 6 6 6 5 5 5 5 5 5
5 3 4 5 6 4 5 6 5 6 7 7 7 7 8 8 8 8 8 8 8 8 10 11 11 10 9 9 8 8 8 8 8 8 7 6 6 5 6 5 5 5 5 5
3 3 1 3 5 5 5 7 6 6 5 6 5 6 6 4 4 5 7 9 10 10 11 11 11 11 11 11 10 9 8 8 8 8 7 7 6 6 6 6 5 5 5 4
2 4 2 3 4 1 4 6 6 4 4 5 6 7 3 3 6 8 9 10 11 11 10 11 11 11 11 11 11 11 9 8 8 8 8 7 7 7 6 7 6 5 5 5
6 4 3 1 1 3 6 3 3 3 2 2 3 3 4 6 6 5 7 9 10 10 10 11 10 10 9 9 9 9 8 8 8 8 8 8 8 7 7 6 6 4 4 4
6 7 4 2 1 4 5 2 1 3 2 1 2 1 1 2 4 1 3 6 9 10 9 9 9 10 10 10 10 10 9 8 8 8 8 8 8 8 7 7 6 5 4 4
4 5 5 3 2 4 5 5 3 3 1 3 1 2 1 5 3 4 4 4 5 6 6 7 7 8 9 9 10 11 10 9 9 9 8 8 8 9 8 7 6 4 5 4
2 2 4 4 3 6 6 5 2 3 4 3 1 3 3 4 5 4 3 4 4 5 5 7 8 9 10 10 11 11 10 10 9 8 8 8 8 8 7 6 5 5 5 5
5 4 3 4 3 6 4 2 3 4 3 1 1 2 2 2 1 2 4 4 5 5 5 6 7 7 7 10 12 11 10 9 8 8 8 7 7 7 7 7 5 5 6 5
3 5 5 5 5 4 2 1 1 2 1 1 1 1 3 2 2 3 4 4 5 6 5 5 7 7 6 8 11 11 9 8 9 9 8 7 7 6 6 7 6 5 5 5
2 1 3 1 2 2 1 1 2 1 1 0 1 2 3 3 2 3 4 4 4 5 5 5 7 8 7 7 8 9 9 10 10 10 8 7 7 6 5 5 5 5 5 5
3 1 3 1 2 1 3 2 2 2 3 3 3 2 3 4 3 4 4 3 4 4 4 6 7 8 7 7 6 7 9 10 9 9 7 6 6 6 5 4 4 6 6 7
2 3 4 4 5 4 2 2 1 3 3 3 3 3 2 3 3 3 3 3 4 4 4 5 5 6 6 7 7 7 8 10 10 8 7 6 5 5 5 4 2 1 3 5
Wind_Direction
82 77 196 213 185 180 177 171 201 252 227 136 158 178 193 191 179 184 182 178 180 182 181 167 158 148 141 140 142 142 133 129 120 108 102 96 81 50 37 46 57 61 63 67
54 250 233 215 211 176 182 180 204 323 266 145 155 202 208 206 197 194 187 186 183 170 169 169 163 157 154 155 152 142 142 142 137 131 131 132 128 104 83 44 41 49 61 61
174 237 218 188 202 190 204 190 192 180 158 104 140 267 225 228 203 199 191 188 183 176 174 173 170 169 162 162 162 156 154 146 140 129 109 90 65 44 38 36 25 22 56 64
200 237 190 187 211 186 221 211 174 168 143 241 187 236 249 216 215 208 202 191 188 184 178 174 173 172 172 173 164 155 155 148 144 135 129 131 131 136 175 150 54 32 49 63
229 206 184 202 215 176 202 183 158 172 147 189 234 199 269 207 216 218 209 198 192 187 180 178 176 173 171 166 158 155 150 146 144 141 144 140 138 149 140 94 76 49 36 50
229 218 183 190 206 177 143 69 47 59 80 269 220 191 262 215 209 204 203 199 191 185 180 177 173 167 164 158 151 150 146 147 146 141 143 146 146 140 128 119 106 68 34 32
310 292 205 147 114 74 88 86 44 2 357 257 222 196 248 230 210 196 190 194 188 181 176 171 168 167 165 160 157 154 150 151 151 145 151 156 153 147 148 149 147 135 101 57
178 272 233 184 168 168 164 139 156 191 231 281 267 229 258 250 203 185 179 182 178 176 175 175 175 170 168 165 160 158 157 156 155 155 163 159 153 145 148 153 153 156 154 150
185 246 252 201 171 146 143 173 171 149 232 273 276 281 308 23 133 160 168 172 180 177 176 176 175 171 168 166 166 166 161 155 158 161 159 151 148 141 142 144 139 142 136 119
166 221 246 220 131 159 156 155 113 129 185 265 290 273 250 236 205 183 175 180 184 179 177 174 175 172 169 168 167 163 158 157 161 160 162 151 148 145 135 123 124 126 121 107
154 163 292 190 190 188 152 156 140 146 176 174 259 270 228 202 197 191 190 186 183 180 178 176 176 174 166 160 159 161 159 153 157 158 153 142 143 135 128 125 130 127 117 112
158 131 223 252 249 188 177 182 155 162 215 188 209 269 267 208 195 189 190 187 181 179 176 173 169 164 162 162 164 166 165 162 164 160 149 145 139 129 126 128 128 121 116 112
140 116 75 343 337 351 202 198 172 155 140 178 204 265 281 213 196 193 184 183 176 169 166 165 164 168 170 170 169 169 167 165 159 150 142 138 137 136 137 134 124 118 116 110
119 121 160 196 224 226 241 237 194 153 169 209 223 244 269 236 213 204 189 184 177 170 171 168 171 175 175 173 171 169 169 164 155 148 146 148 152 149 144 136 125 121 118 113
110 149 204 229 239 232 233 245 228 202 194 200 230 228 238 226 210 199 187 176 169 171 174 176 177 176 174 171 170 168 167 163 155 150 152 157 153 141 133 129 125 120 115 115
106 157 191 277 255 253 261 254 237 226 214 214 227 253 245 222 178 172 176 173 177 183 183 182 178 172 174 174 171 167 166 165 156 155 159 154 145 139 137 135 127 120 116 110
141 138 138 268 286 321 277 251 217 217 225 193 212 237 229 175 178 183 181 178 182 186 185 181 181 178 177 175 170 169 169 160 154 156 156 154 149 146 146 140 129 129 128 118
154 139 140 224 27 232 247 255 171 170 247 217 195 211 200 197 190 179 179 180 184 184 184 184 181 177 174 168 163 160 155 155 155 156 158 158 152 150 147 140 140 144 138 133
159 146 137 139 210 276 292 301 192 175 254 251 167 199 226 141 83 17 202 184 186 186 186 183 179 172 168 164 159 151 154 156 158 162 166 165 157 153 151 151 155 153 141 136
108 121 129 140 168 238 257 286 277 117 289 309 167 172 143 108 123 244 226 183 173 173 171 168 163 157 161 163 154 153 160 161 169 171 168 164 159 157 159 160 156 149 142 140
90 98 140 159 203 256 266 290 60 125 240 277 202 175 155 158 194 217 183 167 157 156 159 156 155 162 169 162 157 161 165 175 175 163 157 159 159 159 156 150 148 143 134 126
171 161 173 150 190 250 289 66 140 210 253 224 187 173 159 162 136 133 146 151 147 140 142 148 152 159 162 162 161 164 175 174 155 150 153 160 158 158 151 144 144 141 137 133
177 184 176 176 207 244 290 179 209 163 147 239 171 170 128 123 128 140 145 147 152 150 149 148 151 150 154 163 163 168 172 155 148 150 156 159 153 150 150 150 150 147 148 150
298 128 117 131 268 290 351 20 21 48 111 54 114 127 129 130 144 137 140 144 148 150 151 145 142 148 158 164 164 164 158 154 151 155 159 157 152 149 150 153 158 160 166 167
245 127 110 152 250 34 14 8 29 44 50 55 52 83 125 126 134 139 140 146 154 152 148 145 152 158 163 159 153 151 154 152 151 154 157 157 156 156 156 161 175 179 191 186
240 163 160 206 215 176 222 289 81 79 59 60 62 51 57 114 138 132 134 137 142 144 140 141 145 151 156 153 151 152 155 154 151 154 159 161 160 160 161 158 152 194 189 194